Time,TemperatureF,DewpointF,PressureIn,WindDirection,WindDirectionDegrees,WindSpeedMPH,WindSpeedGustMPH,Humidity,HourlyPrecipIn,Conditions,Clouds,dailyrainin,SoftwareType,DateUTC
2013-01-29 00:00:00,31.2,30.7,29.98,WSW,248,0.0,0.0,98,0.00,,,0.00,VWS V14.00,2013-01-29 05:00:00,
2013-01-29 00:30:00,31.3,30.8,29.98,WSW,248,0.0,1.0,98,0.00,,,0.00,VWS V14.00,2013-01-29 05:30:00,
2013-01-29 01:00:00,31.4,30.9,29.98,WSW,248,0.0,1.0,98,0.00,,,0.00,VWS V14.00,2013-01-29 06:00:00,
2013-01-29 01:30:00,31.4,30.9,29.99,WSW,248,0.0,1.0,98,0.00,,,0.00,VWS V14.00,2013-01-29 06:30:00,
2013-01-29 02:00:00,31.4,30.9,29.99,WSW,248,0.0,0.0,98,0.00,,,0.00,VWS V14.00,2013-01-29 07:00:00,
2013-01-29 02:30:00,31.5,31.0,30.00,WSW,248,0.0,1.0,98,0.00,,,0.00,VWS V14.00,2013-01-29 07:30:00,
2013-01-29 03:00:00,31.5,31.0,30.00,WSW,248,0.0,1.0,98,0.00,,,0.00,VWS V14.00,2013-01-29 08:00:00,
2013-01-29 03:30:00,31.5,31.0,30.00,WSW,248,0.0,1.0,98,0.00,,,0.00,VWS V14.00,2013-01-29 08:30:00,
2013-01-29 04:00:00,31.7,31.2,30.01,WSW,248,0.0,1.0,98,0.00,,,0.00,VWS V14.00,2013-01-29 09:00:00,
2013-01-29 04:30:00,32.0,31.5,30.01,WSW,248,0.0,1.0,98,0.00,,,0.00,VWS V14.00,2013-01-29 09:30:00,
2013-01-29 05:00:00,32.4,31.9,30.02,WSW,248,0.0,1.0,98,0.00,,,0.00,VWS V14.00,2013-01-29 10:00:00,
2013-01-29 05:30:00,32.3,31.8,30.04,WSW,248,0.0,1.0,98,0.00,,,0.00,VWS V14.00,2013-01-29 10:30:00,
2013-01-29 06:00:00,32.3,31.8,30.05,WSW,248,0.0,1.0,98,0.00,,,0.00,VWS V14.00,2013-01-29 11:00:00,
2013-01-29 06:30:00,32.4,31.9,30.07,WSW,248,0.0,1.0,98,0.00,,,0.00,VWS V14.00,2013-01-29 11:30:00,
2013-01-29 07:00:00,32.4,31.9,30.08,WSW,248,0.0,0.0,98,0.00,,,0.00,VWS V14.00,2013-01-29 12:00:00,
2013-01-29 07:30:00,32.3,31.8,30.09,WSW,248,0.0,0.0,98,0.00,,,0.00,VWS V14.00,2013-01-29 12:30:00,
2013-01-29 08:00:00,32.5,32.2,30.10,WSW,248,0.0,0.0,99,0.00,,,0.00,VWS V14.00,2013-01-29 13:00:00,
2013-01-29 08:30:00,33.2,33.0,30.10,WSW,248,0.0,0.0,99,0.00,,,0.00,VWS V14.00,2013-01-29 13:30:00,
2013-01-29 09:00:00,34.6,34.3,30.11,WSW,248,0.0,0.0,99,0.00,,,0.00,VWS V14.00,2013-01-29 14:00:00,
2013-01-29 09:30:00,35.6,35.1,30.13,WSW,248,0.0,1.0,98,0.01,,,0.01,VWS V14.00,2013-01-29 14:30:00,
2013-01-29 10:00:00,36.6,36.1,30.13,WSW,248,0.0,1.0,98,0.05,,,0.05,VWS V14.00,2013-01-29 15:00:00,
2013-01-29 10:30:00,37.3,36.5,30.13,WSW,248,0.0,0.0,97,0.07,,,0.07,VWS V14.00,2013-01-29 15:30:00,
2013-01-29 11:00:00,37.2,36.2,30.13,WSW,248,0.0,1.0,96,0.09,,,0.10,VWS V14.00,2013-01-29 16:00:00,
2013-01-29 11:30:00,37.1,35.8,30.13,WSW,248,0.0,3.0,95,0.07,,,0.12,VWS V14.00,2013-01-29 16:30:00,
2013-01-29 12:00:00,36.4,34.8,30.12,East,90,0.0,4.0,94,0.06,,,0.13,VWS V14.00,2013-01-29 17:00:00,
2013-01-29 12:30:00,36.1,34.8,30.12,ENE,68,0.0,3.0,95,0.05,,,0.15,VWS V14.00,2013-01-29 17:30:00,
2013-01-29 13:00:00,37.0,35.4,30.12,ENE,68,0.0,1.0,94,0.03,,,0.15,VWS V14.00,2013-01-29 18:00:00,
2013-01-29 13:30:00,37.5,35.7,30.11,East,90,0.0,1.0,93,0.04,,,0.17,VWS V14.00,2013-01-29 18:30:00,
2013-01-29 14:00:00,37.3,35.5,30.10,East,90,0.0,4.0,93,0.02,,,0.17,VWS V14.00,2013-01-29 19:00:00,
2013-01-29 14:30:00,37.1,35.0,30.10,ENE,68,0.0,3.0,92,0.03,,,0.18,VWS V14.00,2013-01-29 19:30:00,
2013-01-29 15:00:00,36.7,34.9,30.11,ENE,68,0.0,3.0,93,0.01,,,0.18,VWS V14.00,2013-01-29 20:00:00,
2013-01-29 15:30:00,36.4,34.8,30.12,WSW,248,0.0,2.0,94,0.01,,,0.18,VWS V14.00,2013-01-29 20:30:00,
2013-01-29 16:00:00,36.2,34.6,30.12,WSW,248,0.0,1.0,94,0.01,,,0.19,VWS V14.00,2013-01-29 21:00:00,
2013-01-29 16:30:00,35.7,34.4,30.12,WSW,248,0.0,2.0,95,0.01,,,0.19,VWS V14.00,2013-01-29 21:30:00,
2013-01-29 17:00:00,35.2,33.9,30.15,WSW,248,0.0,1.0,95,0.01,,,0.19,VWS V14.00,2013-01-29 22:00:00,
2013-01-29 17:30:00,34.7,33.7,30.13,WSW,248,0.0,0.0,96,0.00,,,0.19,VWS V14.00,2013-01-29 22:30:00,
2013-01-29 18:00:00,34.8,33.8,30.13,WSW,248,0.0,1.0,96,0.02,,,0.21,VWS V14.00,2013-01-29 23:00:00,
2013-01-29 18:30:00,34.4,33.6,30.13,WSW,248,0.0,2.0,97,0.02,,,0.21,VWS V14.00,2013-01-29 23:30:00,
2013-01-29 19:00:00,34.4,33.6,30.11,NW,315,0.0,3.0,97,0.02,,,0.21,VWS V14.00,2013-01-30 00:00:00,
2013-01-29 19:30:00,34.1,33.3,30.13,NW,315,0.0,0.0,97,0.00,,,0.21,VWS V14.00,2013-01-30 00:30:00,
2013-01-29 20:00:00,33.8,33.0,30.12,NW,315,0.0,1.0,97,0.00,,,0.21,VWS V14.00,2013-01-30 01:00:00,
2013-01-29 20:30:00,33.6,33.1,30.12,NW,315,0.0,1.0,98,0.00,,,0.21,VWS V14.00,2013-01-30 01:30:00,
2013-01-29 21:00:00,34.0,33.5,30.13,NW,315,0.0,3.0,98,0.01,,,0.22,VWS V14.00,2013-01-30 02:00:00,
2013-01-29 21:30:00,34.1,33.6,30.12,NW,315,0.0,2.0,98,0.01,,,0.22,VWS V14.00,2013-01-30 02:30:00,
2013-01-29 22:00:00,34.0,33.5,30.11,NW,315,0.0,2.0,98,0.01,,,0.22,VWS V14.00,2013-01-30 03:00:00,
2013-01-29 22:30:00,33.9,33.4,30.10,NW,315,0.0,2.0,98,0.01,,,0.23,VWS V14.00,2013-01-30 03:30:00,
2013-01-29 23:00:00,33.8,33.3,30.11,NW,315,0.0,2.0,98,0.01,,,0.23,VWS V14.00,2013-01-30 04:00:00,
2013-01-29 23:30:00,33.7,33.5,30.12,NW,315,0.0,0.0,99,0.01,,,0.23,VWS V14.00,2013-01-30 04:30:00,